SL-16 DEB

Satellite information

Favourite Embed

Satellite Type and Status

DEBRISDECAYED

Key statistics

Satellite SL-16 DEB at a glance.

Uptime

11746

Days in orbit

Revolutions

≈ 15.8

Per day

Orbit

LEO

Low Earth Orbit

Inclination

71.4

Latest

Satellite identification and parameters

Extended collection of information and parameters for SL-16 DEB.

Object identification

Identified? True

Debris? True

Object name: SL-16 DEB

International designator: 1992-093HQ

Object number (NORAD): 22554

Object ID (CCSDS): 22554

Country: COMMONWEALTH OF INDEPENDENT STATES (CIS)

Current information (Y/N): Y

RCS size: SMALL

Orbital parameters

Decay date: Feb. 21, 2025

Period: 91.336 minutes

Inclination: 71.3555 deg

SMA: 6718.245 km

Apoapsis: 349.876 km

Periapsis: 330.344 km

RAAN: 338.7491 deg

Eccentricy: 0.0014537

Argument of periapsis: 173.5218 deg

Mean anomaly: 186.6182 deg

Mean motion: 15.76590836 rev/day

Mean motion (dot): 0.03229229 rev/day2

B* drag term: 0.017074 1/REarth

Two-line elements (TLE)

Creation date: Feb. 13, 2025, 5:23 p.m.

Reference frame: TEME

Reference center: EARTH

Epoch: Feb. 13, 2025, 4:37 a.m. UTC

TLE line 0: 0 SL-16 DEB

TLE line 1: 1 22554U 92093HQ 25044.19248519 .03229229 00000-0 17074-1 0 9994

TLE line 2: 2 22554 71.3555 338.7491 0014537 173.5218 186.6182 15.76590836664477

Live tracking on map

Satellite SL-16 DEB has decayed and is no longer in orbit. No tracking available.

In-orbit conjunctions

Satellite SL-16 DEB has decayed and is no longer in orbit. No conjunctions available.

Associated space launch

Second generation ELING satellite

SL-16 DEB was lifted into orbit during the mission ‘Zenit-2 | Tselina-2 12’, on board a Zenit-2 space rocket.

The launch took place on Dec. 25, 1992, 5:56 a.m. from 45/1.

For more information about the launch, click the button.

Launch to space Zenit-2 | Tselina-2 12
Zenit-2 | Tselina-2 12

Agency: N/A

Status: Launch Successful

Launch date: Dec. 25, 1992, 5:56 a.m. UTC

Rocket: Zenit-2

Launch pad: 45/1

Location: Baikonur Cosmodrome, Republic of Kazakhstan

...

Latest news about this satellite

There are no fresh news available about this satellite. Check back as we update our databases every day.


Newsletter sign-up

Weekly statistics, charts and insights to help you stay on top of the space industry.